Time,TemperatureF,DewpointF,PressureIn,WindDirection,WindDirectionDegrees,WindSpeedMPH,WindSpeedGustMPH,Humidity,HourlyPrecipIn,Conditions,Clouds,dailyrainin,SoftwareType,DateUTC
2013-03-30 00:00:00,40.8,39.8,30.30,ESE,108,0.0,0.0,96,0.00,,OVC055,0.00,VWS V14.01,2013-03-30 04:00:00,
2013-03-30 00:05:00,40.7,39.7,30.30,ESE,108,0.0,0.0,96,0.00,,OVC055,0.00,VWS V14.01,2013-03-30 04:05:00,
2013-03-30 00:10:00,40.7,39.7,30.29,ESE,108,0.0,0.0,96,0.00,,OVC055,0.00,VWS V14.01,2013-03-30 04:10:00,
2013-03-30 00:15:00,40.6,39.5,30.29,ESE,108,0.0,0.0,96,0.00,,OVC055,0.00,VWS V14.01,2013-03-30 04:15:00,
2013-03-30 00:20:00,40.6,39.5,30.29,ESE,108,0.0,0.0,96,0.00,,OVC055,0.00,VWS V14.01,2013-03-30 04:20:00,
2013-03-30 00:25:00,40.5,39.5,30.29,ESE,108,0.0,0.0,96,0.00,,OVC055,0.00,VWS V14.01,2013-03-30 04:25:00,
2013-03-30 00:30:00,40.4,39.3,30.29,ESE,108,0.0,0.0,96,0.00,,OVC055,0.00,VWS V14.01,2013-03-30 04:30:00,
2013-03-30 00:35:00,40.4,39.3,30.29,ESE,108,0.0,0.0,96,0.00,,OVC055,0.00,VWS V14.01,2013-03-30 04:35:00,
2013-03-30 00:40:00,40.3,39.2,30.29,ESE,108,0.0,0.0,96,0.00,,OVC055,0.00,VWS V14.01,2013-03-30 04:40:00,
2013-03-30 00:45:00,40.2,39.2,30.29,ESE,108,0.0,0.0,96,0.00,,OVC055,0.00,VWS V14.01,2013-03-30 04:45:00,
2013-03-30 00:50:00,40.2,39.2,30.28,ESE,108,0.0,0.0,96,0.00,,OVC055,0.00,VWS V14.01,2013-03-30 04:50:00,
2013-03-30 00:55:00,40.3,39.2,30.28,ESE,108,0.0,0.0,96,0.00,,OVC055,0.00,VWS V14.01,2013-03-30 04:55:00,
2013-03-30 01:00:00,40.2,39.2,30.29,ESE,108,0.0,0.0,96,0.00,,OVC055,0.00,VWS V14.01,2013-03-30 05:00:00,
2013-03-30 01:05:00,40.2,39.2,30.29,ESE,108,0.0,0.0,96,0.00,,OVC055,0.00,VWS V14.01,2013-03-30 05:05:00,
2013-03-30 01:10:00,40.2,39.2,30.28,ESE,108,0.0,0.0,96,0.00,,OVC055,0.00,VWS V14.01,2013-03-30 05:10:00,
2013-03-30 01:15:00,40.2,39.2,30.28,ESE,108,0.0,1.0,96,0.00,,OVC055,0.00,VWS V14.01,2013-03-30 05:15:00,
2013-03-30 01:20:00,40.3,39.5,30.28,ESE,108,0.0,1.0,97,0.00,,OVC055,0.00,VWS V14.01,2013-03-30 05:20:00,
2013-03-30 01:25:00,40.2,39.2,30.28,ESE,108,0.0,1.0,96,0.00,,OVC055,0.00,VWS V14.01,2013-03-30 05:25:00,
2013-03-30 01:30:00,40.2,39.4,30.28,ESE,108,0.0,0.0,97,0.00,,OVC055,0.00,VWS V14.01,2013-03-30 05:30:00,
2013-03-30 01:35:00,40.2,39.4,30.28,ESE,108,0.0,0.0,97,0.00,,OVC055,0.00,VWS V14.01,2013-03-30 05:35:00,
2013-03-30 01:40:00,40.2,39.4,30.28,ESE,108,0.0,0.0,97,0.00,,OVC055,0.00,VWS V14.01,2013-03-30 05:40:00,
2013-03-30 01:45:00,40.2,39.4,30.28,ESE,108,0.0,0.0,97,0.00,,OVC055,0.00,VWS V14.01,2013-03-30 05:45:00,
2013-03-30 01:50:00,40.3,39.5,30.28,ESE,108,0.0,2.0,97,0.00,,OVC055,0.00,VWS V14.01,2013-03-30 05:50:00,
2013-03-30 01:55:00,40.2,39.4,30.28,ESE,108,0.0,2.0,97,0.00,,OVC055,0.00,VWS V14.01,2013-03-30 05:55:00,
2013-03-30 02:00:00,40.2,39.4,30.28,ESE,108,1.0,1.0,97,0.00,,OVC055,0.00,VWS V14.01,2013-03-30 06:00:00,
2013-03-30 02:05:00,40.2,39.4,30.28,ESE,108,0.0,1.0,97,0.00,,OVC055,0.00,VWS V14.01,2013-03-30 06:05:00,
2013-03-30 02:10:00,40.2,39.4,30.27,ESE,108,0.0,1.0,97,0.00,,OVC055,0.00,VWS V14.01,2013-03-30 06:10:00,
2013-03-30 02:15:00,40.2,39.4,30.27,ESE,108,0.0,1.0,97,0.00,,OVC055,0.00,VWS V14.01,2013-03-30 06:15:00,
2013-03-30 02:20:00,40.2,39.4,30.27,ESE,108,1.0,2.0,97,0.01,,OVC055,0.01,VWS V14.01,2013-03-30 06:20:00,
2013-03-30 02:25:00,40.2,39.7,30.27,ESE,108,0.0,2.0,98,0.01,,OVC055,0.01,VWS V14.01,2013-03-30 06:25:00,
2013-03-30 02:30:00,40.2,39.7,30.27,ESE,108,2.0,2.0,98,0.01,,OVC055,0.01,VWS V14.01,2013-03-30 06:30:00,
2013-03-30 02:35:00,40.2,39.4,30.26,North,351,0.0,3.0,97,0.01,,OVC055,0.01,VWS V14.01,2013-03-30 06:35:00,
2013-03-30 02:40:00,40.2,39.4,30.26,North,351,0.0,3.0,97,0.01,,OVC055,0.01,VWS V14.01,2013-03-30 06:40:00,
2013-03-30 02:45:00,40.2,39.4,30.26,North,351,0.0,3.0,97,0.01,,OVC055,0.01,VWS V14.01,2013-03-30 06:45:00,
2013-03-30 02:50:00,40.1,39.3,30.26,North,351,0.0,3.0,97,0.01,,OVC055,0.01,VWS V14.01,2013-03-30 06:50:00,
2013-03-30 02:55:00,40.1,39.3,30.26,North,351,0.0,3.0,97,0.01,,OVC055,0.01,VWS V14.01,2013-03-30 06:55:00,
2013-03-30 03:00:00,40.0,39.2,30.26,North,351,0.0,0.0,97,0.01,,OVC055,0.01,VWS V14.01,2013-03-30 07:00:00,
2013-03-30 03:05:00,40.0,39.5,30.26,North,351,0.0,0.0,98,0.01,,OVC055,0.01,VWS V14.01,2013-03-30 07:05:00,
2013-03-30 03:10:00,40.0,39.5,30.26,North,351,0.0,0.0,98,0.01,,OVC055,0.01,VWS V14.01,2013-03-30 07:10:00,
2013-03-30 03:15:00,40.0,39.5,30.26,North,351,0.0,0.0,98,0.01,,OVC055,0.01,VWS V14.01,2013-03-30 07:15:00,
2013-03-30 03:20:00,40.0,39.5,30.26,North,351,0.0,0.0,98,0.01,,OVC055,0.01,VWS V14.01,2013-03-30 07:20:00,
2013-03-30 03:25:00,39.9,39.4,30.26,North,351,0.0,0.0,98,0.01,,OVC055,0.01,VWS V14.01,2013-03-30 07:25:00,
2013-03-30 03:30:00,39.9,39.4,30.26,North,351,0.0,0.0,98,0.00,,OVC055,0.01,VWS V14.01,2013-03-30 07:30:00,
2013-03-30 03:35:00,39.8,39.3,30.25,North,351,0.0,0.0,98,0.00,,OVC055,0.01,VWS V14.01,2013-03-30 07:35:00,
2013-03-30 03:40:00,39.8,39.3,30.26,North,351,0.0,0.0,98,0.00,,OVC055,0.01,VWS V14.01,2013-03-30 07:40:00,
2013-03-30 03:45:00,39.8,39.3,30.26,North,351,0.0,0.0,98,0.00,,OVC055,0.01,VWS V14.01,2013-03-30 07:45:00,
2013-03-30 03:50:00,39.8,39.3,30.26,North,351,0.0,2.0,98,0.00,,OVC055,0.01,VWS V14.01,2013-03-30 07:50:00,
2013-03-30 03:55:00,39.8,39.3,30.26,North,351,0.0,2.0,98,0.00,,OVC055,0.01,VWS V14.01,2013-03-30 07:55:00,
2013-03-30 04:00:00,39.7,39.2,30.26,North,351,0.0,0.0,98,0.00,,OVC055,0.01,VWS V14.01,2013-03-30 08:00:00,
2013-03-30 04:05:00,39.7,39.2,30.26,North,351,0.0,0.0,98,0.00,,OVC055,0.01,VWS V14.01,2013-03-30 08:05:00,
2013-03-30 04:10:00,39.7,39.2,30.25,North,351,0.0,0.0,98,0.00,,OVC055,0.01,VWS V14.01,2013-03-30 08:10:00,
2013-03-30 04:15:00,39.7,39.2,30.25,North,351,0.0,0.0,98,0.00,,OVC055,0.01,VWS V14.01,2013-03-30 08:15:00,
2013-03-30 04:20:00,39.7,39.4,30.25,North,351,0.0,1.0,99,0.01,,OVC055,0.02,VWS V14.01,2013-03-30 08:20:00,
2013-03-30 04:25:00,39.8,39.5,30.25,North,351,0.0,1.0,99,0.01,,OVC055,0.02,VWS V14.01,2013-03-30 08:25:00,
2013-03-30 04:29:00,39.8,39.5,30.25,North,351,0.0,0.0,99,0.01,,OVC055,0.02,VWS V14.01,2013-03-30 08:29:00,
2013-03-30 04:30:00,39.8,39.5,30.25,North,351,0.0,1.0,99,0.01,,OVC055,0.02,VWS V14.01,2013-03-30 08:30:00,
2013-03-30 04:34:00,39.8,39.5,30.25,North,351,0.0,1.0,99,0.01,,OVC055,0.02,VWS V14.01,2013-03-30 08:34:00,
2013-03-30 04:39:00,39.8,39.5,30.25,North,351,1.0,2.0,99,0.01,,OVC055,0.02,VWS V14.01,2013-03-30 08:39:00,
2013-03-30 04:44:00,39.8,39.5,30.26,North,351,1.0,3.0,99,0.01,,OVC055,0.02,VWS V14.01,2013-03-30 08:44:00,
2013-03-30 04:49:00,39.8,39.5,30.25,North,351,1.0,3.0,99,0.01,,OVC055,0.02,VWS V14.01,2013-03-30 08:49:00,
2013-03-30 04:54:00,39.8,39.3,30.25,North,351,0.0,3.0,98,0.01,,OVC055,0.02,VWS V14.01,2013-03-30 08:54:00,
2013-03-30 04:59:00,39.8,39.5,30.26,North,351,0.0,0.0,99,0.01,,OVC055,0.02,VWS V14.01,2013-03-30 08:59:00,
2013-03-30 05:00:00,39.8,39.5,30.26,North,351,0.0,3.0,99,0.01,,OVC055,0.02,VWS V14.01,2013-03-30 09:00:00,
2013-03-30 05:04:00,39.8,39.5,30.26,North,351,0.0,0.0,99,0.01,,OVC055,0.02,VWS V14.01,2013-03-30 09:04:00,
2013-03-30 05:09:00,39.8,39.5,30.25,North,351,0.0,0.0,99,0.01,,OVC055,0.02,VWS V14.01,2013-03-30 09:09:00,
2013-03-30 05:14:00,39.7,39.4,30.25,North,351,0.0,0.0,99,0.01,,OVC055,0.02,VWS V14.01,2013-03-30 09:14:00,
2013-03-30 05:19:00,39.7,39.4,30.25,North,351,0.0,0.0,99,0.01,,OVC055,0.02,VWS V14.01,2013-03-30 09:19:00,
2013-03-30 05:24:00,39.7,39.4,30.25,North,351,0.0,0.0,99,0.01,,OVC055,0.02,VWS V14.01,2013-03-30 09:24:00,
2013-03-30 05:29:00,39.7,39.4,30.24,North,351,0.0,0.0,99,0.01,,OVC055,0.03,VWS V14.01,2013-03-30 09:29:00,
2013-03-30 05:30:00,39.7,39.4,30.24,North,351,0.0,1.0,99,0.02,,OVC055,0.03,VWS V14.01,2013-03-30 09:30:00,
2013-03-30 05:34:00,39.7,39.4,30.24,North,351,0.0,0.0,99,0.01,,OVC055,0.03,VWS V14.01,2013-03-30 09:34:00,
2013-03-30 05:39:00,39.7,39.4,30.24,North,351,1.0,1.0,99,0.01,,OVC055,0.03,VWS V14.01,2013-03-30 09:39:00,
2013-03-30 05:44:00,39.7,39.4,30.24,North,351,0.0,2.0,99,0.01,,OVC055,0.03,VWS V14.01,2013-03-30 09:44:00,
2013-03-30 05:49:00,39.8,39.5,30.24,North,351,0.0,2.0,99,0.01,,OVC055,0.03,VWS V14.01,2013-03-30 09:49:00,
2013-03-30 05:54:00,39.7,39.4,30.24,North,351,0.0,2.0,99,0.01,,OVC055,0.03,VWS V14.01,2013-03-30 09:54:00,
2013-03-30 05:59:00,39.7,39.4,30.24,North,351,0.0,2.0,99,0.01,,OVC055,0.03,VWS V14.01,2013-03-30 09:59:00,
2013-03-30 06:00:00,39.7,39.4,30.24,North,351,0.0,2.0,99,0.01,,OVC055,0.03,VWS V14.01,2013-03-30 10:00:00,
2013-03-30 06:04:00,39.7,39.4,30.24,North,351,0.0,0.0,99,0.01,,OVC055,0.03,VWS V14.01,2013-03-30 10:04:00,
2013-03-30 06:09:00,39.6,39.3,30.24,North,351,0.0,0.0,99,0.01,,OVC055,0.03,VWS V14.01,2013-03-30 10:09:00,
2013-03-30 06:14:00,39.6,39.3,30.24,North,351,0.0,0.0,99,0.01,,OVC055,0.03,VWS V14.01,2013-03-30 10:14:00,
2013-03-30 06:19:00,39.6,39.3,30.24,North,351,0.0,0.0,99,0.01,,OVC055,0.03,VWS V14.01,2013-03-30 10:19:00,
2013-03-30 06:24:00,39.6,39.3,30.24,North,351,0.0,0.0,99,0.01,,OVC055,0.03,VWS V14.01,2013-03-30 10:24:00,
2013-03-30 06:29:00,39.6,39.3,30.24,North,351,0.0,0.0,99,0.01,,OVC055,0.03,VWS V14.01,2013-03-30 10:29:00,
2013-03-30 06:30:00,39.6,39.3,30.24,North,351,0.0,0.0,99,0.01,,OVC055,0.03,VWS V14.01,2013-03-30 10:30:00,
2013-03-30 06:34:00,39.6,39.3,30.24,North,351,0.0,1.0,99,0.00,,OVC055,0.03,VWS V14.01,2013-03-30 10:34:00,
2013-03-30 06:39:00,39.6,39.3,30.24,North,351,0.0,1.0,99,0.00,,OVC055,0.03,VWS V14.01,2013-03-30 10:39:00,
2013-03-30 06:44:00,39.6,39.3,30.24,North,351,0.0,1.0,99,0.00,,OVC055,0.03,VWS V14.01,2013-03-30 10:44:00,
2013-03-30 06:49:00,39.6,39.3,30.23,North,351,0.0,1.0,99,0.00,,OVC055,0.03,VWS V14.01,2013-03-30 10:49:00,
2013-03-30 06:54:00,39.6,39.3,30.24,North,351,0.0,1.0,99,0.00,,OVC055,0.03,VWS V14.01,2013-03-30 10:54:00,
2013-03-30 06:59:00,39.5,39.2,30.24,North,351,0.0,1.0,99,0.00,,OVC055,0.03,VWS V14.01,2013-03-30 10:59:00,
2013-03-30 07:00:00,39.5,39.2,30.24,North,351,0.0,1.0,99,0.00,,OVC055,0.03,VWS V14.01,2013-03-30 11:00:00,
2013-03-30 07:04:00,39.3,39.0,30.24,North,351,0.0,0.0,99,0.00,,OVC055,0.03,VWS V14.01,2013-03-30 11:04:00,
2013-03-30 07:09:00,39.2,38.9,30.24,North,351,0.0,0.0,99,0.00,,OVC055,0.03,VWS V14.01,2013-03-30 11:09:00,
2013-03-30 07:14:00,39.0,38.7,30.23,North,351,0.0,0.0,99,0.00,,OVC055,0.03,VWS V14.01,2013-03-30 11:14:00,
2013-03-30 07:19:00,38.9,38.6,30.23,North,351,0.0,0.0,99,0.00,,OVC055,0.03,VWS V14.01,2013-03-30 11:19:00,
2013-03-30 07:24:00,38.7,38.4,30.23,North,351,0.0,0.0,99,0.00,,OVC055,0.03,VWS V14.01,2013-03-30 11:24:00,
2013-03-30 07:29:00,38.5,38.2,30.24,North,351,0.0,0.0,99,0.00,,OVC055,0.03,VWS V14.01,2013-03-30 11:29:00,
2013-03-30 07:30:00,38.5,38.2,30.24,North,351,0.0,0.0,99,0.00,,OVC055,0.03,VWS V14.01,2013-03-30 11:30:00,
2013-03-30 07:34:00,38.4,38.1,30.24,North,351,0.0,0.0,99,0.00,,OVC055,0.03,VWS V14.01,2013-03-30 11:34:00,
2013-03-30 07:39:00,38.4,38.1,30.24,North,351,0.0,0.0,99,0.00,,OVC055,0.03,VWS V14.01,2013-03-30 11:39:00,
2013-03-30 07:44:00,38.5,38.2,30.24,North,351,0.0,0.0,99,0.00,,OVC055,0.03,VWS V14.01,2013-03-30 11:44:00,
2013-03-30 07:49:00,38.6,38.3,30.24,North,351,0.0,0.0,99,0.00,,OVC055,0.03,VWS V14.01,2013-03-30 11:49:00,
2013-03-30 07:54:00,38.7,38.4,30.24,North,351,0.0,0.0,99,0.00,,OVC055,0.03,VWS V14.01,2013-03-30 11:54:00,
2013-03-30 07:59:00,38.7,38.4,30.25,North,351,0.0,0.0,99,0.00,,OVC055,0.03,VWS V14.01,2013-03-30 11:59:00,
2013-03-30 08:00:00,38.7,38.4,30.25,North,351,0.0,0.0,99,0.00,,OVC055,0.03,VWS V14.01,2013-03-30 12:00:00,
2013-03-30 08:04:00,38.9,38.6,30.25,North,351,0.0,0.0,99,0.00,,OVC055,0.03,VWS V14.01,2013-03-30 12:04:00,
2013-03-30 08:09:00,39.0,38.7,30.25,North,351,0.0,0.0,99,0.00,,OVC055,0.03,VWS V14.01,2013-03-30 12:09:00,
2013-03-30 08:14:00,39.2,39.2,30.25,North,351,0.0,0.0,100,0.00,,OVC055,0.03,VWS V14.01,2013-03-30 12:14:00,
2013-03-30 08:19:00,39.4,39.4,30.25,North,351,0.0,0.0,100,0.00,,OVC055,0.03,VWS V14.01,2013-03-30 12:19:00,
2013-03-30 08:24:00,39.6,39.6,30.25,North,351,0.0,0.0,100,0.00,,OVC055,0.03,VWS V14.01,2013-03-30 12:24:00,
2013-03-30 08:29:00,39.7,39.7,30.25,North,351,0.0,1.0,100,0.00,,OVC055,0.03,VWS V14.01,2013-03-30 12:29:00,
2013-03-30 08:30:00,39.7,39.7,30.25,North,351,0.0,1.0,100,0.00,,OVC055,0.03,VWS V14.01,2013-03-30 12:30:00,
2013-03-30 08:34:00,39.9,39.9,30.25,North,351,0.0,0.0,100,0.00,,OVC055,0.03,VWS V14.01,2013-03-30 12:34:00,
2013-03-30 08:39:00,40.0,40.0,30.25,North,351,0.0,0.0,100,0.00,,OVC055,0.03,VWS V14.01,2013-03-30 12:39:00,
2013-03-30 08:44:00,40.0,40.0,30.25,North,351,0.0,0.0,100,0.00,,OVC055,0.03,VWS V14.01,2013-03-30 12:44:00,
2013-03-30 08:49:00,40.2,40.2,30.25,North,351,0.0,1.0,100,0.00,,OVC055,0.03,VWS V14.01,2013-03-30 12:49:00,
2013-03-30 08:54:00,40.4,40.4,30.24,North,351,0.0,2.0,100,0.00,,OVC055,0.03,VWS V14.01,2013-03-30 12:54:00,
2013-03-30 08:59:00,40.5,40.5,30.24,North,351,0.0,2.0,100,0.00,,OVC055,0.03,VWS V14.01,2013-03-30 12:59:00,
2013-03-30 09:00:00,40.5,40.5,30.24,North,351,0.0,2.0,100,0.00,,OVC055,0.03,VWS V14.01,2013-03-30 13:00:00,
2013-03-30 09:04:00,40.7,40.7,30.24,North,351,0.0,1.0,100,0.00,,OVC055,0.03,VWS V14.01,2013-03-30 13:04:00,
2013-03-30 09:09:00,40.8,40.8,30.25,North,351,1.0,1.0,100,0.00,,OVC055,0.03,VWS V14.01,2013-03-30 13:09:00,
2013-03-30 09:14:00,41.1,41.1,30.25,North,351,0.0,1.0,100,0.00,,OVC055,0.03,VWS V14.01,2013-03-30 13:14:00,
2013-03-30 09:19:00,41.5,41.5,30.25,North,351,1.0,2.0,100,0.00,,OVC055,0.03,VWS V14.01,2013-03-30 13:19:00,
2013-03-30 09:24:00,41.6,41.6,30.25,North,351,0.0,2.0,100,0.00,,OVC055,0.03,VWS V14.01,2013-03-30 13:24:00,
2013-03-30 09:29:00,41.8,41.5,30.25,North,351,1.0,2.0,99,0.00,,OVC055,0.03,VWS V14.01,2013-03-30 13:29:00,
2013-03-30 09:30:00,41.8,41.8,30.25,North,351,1.0,2.0,100,0.00,,OVC055,0.03,VWS V14.01,2013-03-30 13:30:00,
2013-03-30 09:34:00,42.2,41.9,30.25,North,351,1.0,1.0,99,0.00,,OVC055,0.03,VWS V14.01,2013-03-30 13:34:00,
2013-03-30 09:39:00,42.6,42.3,30.25,North,351,0.0,2.0,99,0.00,,OVC055,0.03,VWS V14.01,2013-03-30 13:39:00,
2013-03-30 09:44:00,43.1,42.6,30.25,North,355,2.0,2.0,98,0.00,,OVC055,0.03,VWS V14.01,2013-03-30 13:44:00,
2013-03-30 09:49:00,43.2,42.1,30.25,North,355,0.0,2.0,96,0.00,,OVC055,0.03,VWS V14.01,2013-03-30 13:49:00,
2013-03-30 09:54:00,43.4,42.3,30.24,North,355,0.0,2.0,96,0.00,,OVC055,0.03,VWS V14.01,2013-03-30 13:54:00,
2013-03-30 09:59:00,43.6,42.5,30.24,North,355,0.0,2.0,96,0.00,,OVC055,0.03,VWS V14.01,2013-03-30 13:59:00,
2013-03-30 10:00:00,43.6,42.5,30.24,North,355,0.0,2.0,96,0.00,,OVC055,0.03,VWS V14.01,2013-03-30 14:00:00,
2013-03-30 10:04:00,43.7,42.4,30.24,North,355,1.0,2.0,95,0.00,,OVC055,0.03,VWS V14.01,2013-03-30 14:04:00,
2013-03-30 10:09:00,44.0,42.7,30.24,North,355,1.0,2.0,95,0.00,,OVC055,0.03,VWS V14.01,2013-03-30 14:09:00,
2013-03-30 10:14:00,44.4,42.8,30.24,North,355,1.0,3.0,94,0.00,,OVC055,0.03,VWS V14.01,2013-03-30 14:14:00,
2013-03-30 10:19:00,45.1,43.2,30.24,North,355,1.0,3.0,93,0.00,,OVC055,0.03,VWS V14.01,2013-03-30 14:19:00,
2013-03-30 10:24:00,45.6,43.1,30.24,North,355,0.0,3.0,91,0.00,,OVC055,0.03,VWS V14.01,2013-03-30 14:24:00,
2013-03-30 10:29:00,46.1,43.3,30.24,North,355,0.0,3.0,90,0.00,,OVC055,0.03,VWS V14.01,2013-03-30 14:29:00,
2013-03-30 10:30:00,46.1,43.3,30.24,North,355,0.0,3.0,90,0.00,,OVC055,0.03,VWS V14.01,2013-03-30 14:30:00,
2013-03-30 10:34:00,46.5,43.1,30.23,North,355,0.0,0.0,88,0.00,,OVC055,0.03,VWS V14.01,2013-03-30 14:34:00,
2013-03-30 10:39:00,46.9,42.9,30.23,North,355,0.0,1.0,86,0.00,,OVC055,0.03,VWS V14.01,2013-03-30 14:39:00,
2013-03-30 10:44:00,47.2,43.2,30.23,SE,131,2.0,2.0,86,0.00,,OVC055,0.03,VWS V14.01,2013-03-30 14:44:00,
2013-03-30 10:49:00,47.3,42.7,30.23,ESE,103,1.0,2.0,84,0.00,,OVC055,0.03,VWS V14.01,2013-03-30 14:49:00,
2013-03-30 10:54:00,47.7,43.4,30.23,East,90,3.0,3.0,85,0.00,,OVC055,0.03,VWS V14.01,2013-03-30 14:54:00,
2013-03-30 10:59:00,48.3,44.3,30.22,NE,36,2.0,3.0,86,0.00,,OVC055,0.03,VWS V14.01,2013-03-30 14:59:00,
2013-03-30 11:00:00,48.4,44.4,30.22,NE,36,2.0,3.0,86,0.00,,OVC055,0.03,VWS V14.01,2013-03-30 15:00:00,
2013-03-30 11:04:00,48.7,43.8,30.22,NNE,24,3.0,3.0,83,0.00,,OVC055,0.03,VWS V14.01,2013-03-30 15:04:00,
2013-03-30 11:09:00,49.2,43.6,30.22,NNE,24,3.0,4.0,81,0.00,,OVC055,0.03,VWS V14.01,2013-03-30 15:09:00,
2013-03-30 11:14:00,49.9,44.0,30.22,NNE,24,1.0,4.0,80,0.00,,OVC055,0.03,VWS V14.01,2013-03-30 15:14:00,
2013-03-30 11:19:00,50.7,44.4,30.22,NE,47,2.0,4.0,79,0.00,,OVC055,0.03,VWS V14.01,2013-03-30 15:19:00,
2013-03-30 11:24:00,51.2,44.9,30.22,NNE,29,2.0,4.0,79,0.00,,OVC055,0.03,VWS V14.01,2013-03-30 15:24:00,
2013-03-30 11:29:00,52.2,45.2,30.22,NNE,29,2.0,4.0,77,0.00,,OVC055,0.03,VWS V14.01,2013-03-30 15:29:00,
2013-03-30 11:30:00,52.2,45.2,30.22,NNE,29,2.0,5.0,77,0.00,,OVC055,0.03,VWS V14.01,2013-03-30 15:30:00,
2013-03-30 11:34:00,53.0,44.2,30.22,North,5,2.0,5.0,72,0.00,,OVC055,0.03,VWS V14.01,2013-03-30 15:34:00,
2013-03-30 11:39:00,53.7,45.6,30.21,North,5,2.0,5.0,74,0.00,,OVC055,0.03,VWS V14.01,2013-03-30 15:39:00,
2013-03-30 11:44:00,54.5,45.3,30.21,North,5,2.0,5.0,71,0.00,,OVC055,0.03,VWS V14.01,2013-03-30 15:44:00,
2013-03-30 11:49:00,54.7,44.4,30.21,North,10,0.0,5.0,68,0.00,,OVC055,0.03,VWS V14.01,2013-03-30 15:49:00,
2013-03-30 11:54:00,55.4,44.2,30.21,NNE,14,0.0,5.0,66,0.00,,OVC055,0.03,VWS V14.01,2013-03-30 15:54:00,
2013-03-30 11:59:00,55.9,43.9,30.21,NNE,14,2.0,5.0,64,0.00,,OVC055,0.03,VWS V14.01,2013-03-30 15:59:00,
2013-03-30 12:00:00,55.9,43.9,30.21,NNE,15,2.0,5.0,64,0.00,,OVC055,0.03,VWS V14.01,2013-03-30 16:00:00,
2013-03-30 12:04:00,56.4,43.6,30.21,West,275,2.0,4.0,62,0.00,,OVC055,0.03,VWS V14.01,2013-03-30 16:04:00,
2013-03-30 12:09:00,56.4,43.6,30.20,SE,139,5.0,5.0,62,0.00,,OVC055,0.03,VWS V14.01,2013-03-30 16:09:00,
2013-03-30 12:14:00,56.2,43.0,30.20,NE,51,3.0,6.0,61,0.00,,OVC055,0.03,VWS V14.01,2013-03-30 16:14:00,
2013-03-30 12:19:00,56.4,43.1,30.20,SE,136,3.0,6.0,61,0.00,,OVC055,0.03,VWS V14.01,2013-03-30 16:19:00,
2013-03-30 12:24:00,56.6,42.9,30.20,NW,313,3.0,6.0,60,0.00,,OVC055,0.03,VWS V14.01,2013-03-30 16:24:00,
2013-03-30 12:29:00,56.5,42.4,30.20,North,5,3.0,6.0,59,0.00,,OVC055,0.03,VWS V14.01,2013-03-30 16:29:00,
2013-03-30 12:30:00,56.5,42.8,30.20,NNE,24,3.0,6.0,60,0.00,,OVC055,0.03,VWS V14.01,2013-03-30 16:30:00,
2013-03-30 12:34:00,56.9,42.7,30.19,SSW,205,1.0,4.0,59,0.00,,OVC055,0.03,VWS V14.01,2013-03-30 16:34:00,
2013-03-30 12:39:00,57.5,42.8,30.19,NNW,339,3.0,4.0,58,0.00,,OVC055,0.03,VWS V14.01,2013-03-30 16:39:00,
2013-03-30 12:44:00,57.5,41.5,30.19,North,5,0.0,5.0,55,0.00,,OVC055,0.03,VWS V14.01,2013-03-30 16:44:00,
2013-03-30 12:49:00,57.6,42.0,30.19,NW,318,3.0,5.0,56,0.00,,OVC055,0.03,VWS V14.01,2013-03-30 16:49:00,
2013-03-30 12:54:00,58.1,41.1,30.18,West,273,3.0,6.0,53,0.00,,OVC055,0.03,VWS V14.01,2013-03-30 16:54:00,
2013-03-30 12:59:00,58.1,41.6,30.18,SSE,160,2.0,7.0,54,0.00,,OVC055,0.03,VWS V14.01,2013-03-30 16:59:00,
2013-03-30 13:00:00,58.1,41.6,30.18,SSE,160,2.0,7.0,54,0.00,,OVC055,0.03,VWS V14.01,2013-03-30 17:00:00,
2013-03-30 13:04:00,58.7,41.6,30.18,NE,35,2.0,4.0,53,0.00,,OVC055,0.03,VWS V14.01,2013-03-30 17:04:00,
2013-03-30 13:09:00,59.3,39.6,30.18,SSW,212,4.0,4.0,48,0.00,,OVC055,0.03,VWS V14.01,2013-03-30 17:09:00,
2013-03-30 13:14:00,59.6,39.9,30.18,WNW,296,3.0,7.0,48,0.00,,OVC055,0.03,VWS V14.01,2013-03-30 17:14:00,
2013-03-30 13:19:00,59.7,41.0,30.18,West,277,6.0,7.0,50,0.00,,OVC055,0.03,VWS V14.01,2013-03-30 17:19:00,
2013-03-30 13:24:00,58.9,40.8,30.17,NE,38,1.0,8.0,51,0.00,,OVC055,0.03,VWS V14.01,2013-03-30 17:24:00,
2013-03-30 13:29:00,59.1,42.0,30.17,SW,223,3.0,8.0,53,0.00,,OVC055,0.03,VWS V14.01,2013-03-30 17:29:00,
2013-03-30 13:30:00,59.1,42.0,30.17,SW,223,3.0,8.0,53,0.00,,OVC055,0.03,VWS V14.01,2013-03-30 17:30:00,
2013-03-30 13:34:00,60.1,40.4,30.17,ESE,111,3.0,4.0,48,0.00,,OVC055,0.03,VWS V14.01,2013-03-30 17:34:00,
2013-03-30 13:39:00,60.0,40.8,30.17,SE,129,0.0,4.0,49,0.00,,OVC055,0.03,VWS V14.01,2013-03-30 17:39:00,
2013-03-30 13:44:00,60.2,41.0,30.17,North,355,4.0,6.0,49,0.00,,OVC055,0.03,VWS V14.01,2013-03-30 17:44:00,
2013-03-30 13:49:00,60.4,40.1,30.17,West,263,2.0,9.0,47,0.00,,OVC055,0.03,VWS V14.01,2013-03-30 17:49:00,
2013-03-30 13:54:00,60.4,39.5,30.17,NW,317,3.0,9.0,46,0.00,,OVC055,0.03,VWS V14.01,2013-03-30 17:54:00,
2013-03-30 13:59:00,60.8,40.5,30.16,NNW,331,2.0,9.0,47,0.00,,OVC055,0.03,VWS V14.01,2013-03-30 17:59:00,
2013-03-30 14:00:00,60.9,41.6,30.16,NW,308,3.0,9.0,49,0.00,,OVC055,0.03,VWS V14.01,2013-03-30 18:00:00,
2013-03-30 14:04:00,61.3,40.9,30.16,NNW,340,1.0,5.0,47,0.00,,OVC055,0.03,VWS V14.01,2013-03-30 18:04:00,
2013-03-30 14:09:00,61.4,40.5,30.16,NNE,19,0.0,6.0,46,0.00,,OVC055,0.03,VWS V14.01,2013-03-30 18:09:00,
2013-03-30 14:14:00,61.3,40.4,30.16,NE,38,4.0,6.0,46,0.00,,OVC055,0.03,VWS V14.01,2013-03-30 18:14:00,
2013-03-30 14:19:00,61.3,39.8,30.16,ENE,60,3.0,6.0,45,0.00,,OVC055,0.03,VWS V14.01,2013-03-30 18:19:00,
2013-03-30 14:24:00,60.8,39.9,30.15,South,175,2.0,10.0,46,0.00,,OVC055,0.03,VWS V14.01,2013-03-30 18:24:00,
2013-03-30 14:29:00,60.7,39.8,30.15,SSE,163,2.0,10.0,46,0.00,,OVC055,0.03,VWS V14.01,2013-03-30 18:29:00,
2013-03-30 14:30:00,60.7,39.8,30.15,East,88,3.0,10.0,46,0.00,,OVC055,0.03,VWS V14.01,2013-03-30 18:30:00,
2013-03-30 14:34:00,61.5,42.2,30.15,North,355,1.0,4.0,49,0.00,,OVC055,0.03,VWS V14.01,2013-03-30 18:34:00,
2013-03-30 14:39:00,62.2,41.2,30.15,NW,319,2.0,4.0,46,0.00,,OVC055,0.03,VWS V14.01,2013-03-30 18:39:00,
2013-03-30 14:44:00,62.1,40.5,30.15,ENE,58,2.0,4.0,45,0.00,,OVC055,0.03,VWS V14.01,2013-03-30 18:44:00,
2013-03-30 14:49:00,61.8,41.4,30.15,NNW,342,2.0,5.0,47,0.00,,OVC055,0.03,VWS V14.01,2013-03-30 18:49:00,
2013-03-30 14:54:00,62.1,41.1,30.14,SE,126,3.0,5.0,46,0.00,,OVC055,0.03,VWS V14.01,2013-03-30 18:54:00,
2013-03-30 14:59:00,61.9,40.9,30.14,ENE,74,1.0,5.0,46,0.00,,OVC055,0.03,VWS V14.01,2013-03-30 18:59:00,
2013-03-30 15:00:00,61.9,40.9,30.14,ENE,74,1.0,5.0,46,0.00,,OVC055,0.03,VWS V14.01,2013-03-30 19:00:00,
2013-03-30 15:04:00,62.0,39.9,30.14,WNW,286,1.0,4.0,44,0.00,,OVC055,0.03,VWS V14.01,2013-03-30 19:04:00,
2013-03-30 15:09:00,62.3,40.7,30.14,NE,55,2.0,5.0,45,0.00,,OVC055,0.03,VWS V14.01,2013-03-30 19:09:00,
2013-03-30 15:14:00,62.6,41.0,30.13,WSW,240,5.0,8.0,45,0.00,,OVC055,0.03,VWS V14.01,2013-03-30 19:14:00,
2013-03-30 15:19:00,63.0,40.8,30.13,NNW,346,4.0,8.0,44,0.00,,OVC055,0.03,VWS V14.01,2013-03-30 19:19:00,
2013-03-30 15:24:00,63.2,40.3,30.13,West,267,2.0,8.0,43,0.00,,OVC055,0.03,VWS V14.01,2013-03-30 19:24:00,
2013-03-30 15:29:00,63.2,42.1,30.13,NNE,17,3.0,8.0,46,0.00,,OVC055,0.03,VWS V14.01,2013-03-30 19:29:00,
2013-03-30 15:30:00,63.2,42.1,30.13,NNE,17,2.0,8.0,46,0.00,,OVC055,0.03,VWS V14.01,2013-03-30 19:30:00,
2013-03-30 15:34:00,63.1,42.6,30.13,NE,43,2.0,5.0,47,0.00,,OVC055,0.03,VWS V14.01,2013-03-30 19:34:00,
2013-03-30 15:39:00,63.2,42.7,30.12,North,355,2.0,5.0,47,0.00,,OVC055,0.03,VWS V14.01,2013-03-30 19:39:00,
2013-03-30 15:44:00,63.4,42.8,30.12,NNW,346,0.0,5.0,47,0.00,,OVC055,0.03,VWS V14.01,2013-03-30 19:44:00,
2013-03-30 15:49:00,64.0,41.7,30.12,ENE,66,2.0,6.0,44,0.00,,OVC055,0.03,VWS V14.01,2013-03-30 19:49:00,
2013-03-30 15:54:00,63.9,42.7,30.12,North,360,2.0,6.0,46,0.00,,OVC055,0.03,VWS V14.01,2013-03-30 19:54:00,
2013-03-30 15:59:00,64.3,44.2,30.12,NNE,14,1.0,6.0,48,0.00,,OVC055,0.03,VWS V14.01,2013-03-30 19:59:00,
2013-03-30 16:00:00,64.3,44.2,30.12,NNE,14,1.0,6.0,48,0.00,,OVC055,0.03,VWS V14.01,2013-03-30 20:00:00,
2013-03-30 16:04:00,64.2,41.8,30.11,NNE,22,2.0,3.0,44,0.00,,OVC055,0.03,VWS V14.01,2013-03-30 20:04:00,
2013-03-30 16:09:00,63.7,41.4,30.11,NNW,342,1.0,4.0,44,0.00,,OVC055,0.03,VWS V14.01,2013-03-30 20:09:00,
2013-03-30 16:14:00,63.9,41.6,30.11,East,85,2.0,4.0,44,0.00,,OVC055,0.03,VWS V14.01,2013-03-30 20:14:00,
2013-03-30 16:19:00,63.4,41.7,30.11,NNE,29,0.0,5.0,45,0.00,,OVC055,0.03,VWS V14.01,2013-03-30 20:19:00,
2013-03-30 16:24:00,63.1,42.0,30.10,North,5,2.0,5.0,46,0.00,,OVC055,0.03,VWS V14.01,2013-03-30 20:24:00,
2013-03-30 16:29:00,63.2,41.0,30.10,East,91,2.0,5.0,44,0.00,,OVC055,0.03,VWS V14.01,2013-03-30 20:29:00,
2013-03-30 16:30:00,63.2,41.0,30.10,East,91,2.0,5.0,44,0.00,,OVC055,0.03,VWS V14.01,2013-03-30 20:30:00,
2013-03-30 16:34:00,63.1,41.4,30.10,NE,34,2.0,4.0,45,0.00,,OVC055,0.03,VWS V14.01,2013-03-30 20:34:00,
2013-03-30 16:39:00,63.3,41.0,30.10,ENE,78,0.0,8.0,44,0.00,,OVC055,0.03,VWS V14.01,2013-03-30 20:39:00,
2013-03-30 16:44:00,63.3,41.0,30.10,NE,38,1.0,8.0,44,0.00,,OVC055,0.03,VWS V14.01,2013-03-30 20:44:00,
2013-03-30 16:49:00,63.1,40.9,30.10,ESE,107,1.0,8.0,44,0.00,,OVC055,0.03,VWS V14.01,2013-03-30 20:49:00,
2013-03-30 16:54:00,62.7,41.6,30.10,North,355,3.0,8.0,46,0.00,,OVC055,0.03,VWS V14.01,2013-03-30 20:54:00,
2013-03-30 16:59:00,62.8,41.2,30.10,NW,306,4.0,8.0,45,0.00,,OVC055,0.03,VWS V14.01,2013-03-30 20:59:00,
2013-03-30 17:00:00,62.8,41.2,30.10,NW,305,2.0,8.0,45,0.00,,OVC055,0.03,VWS V14.01,2013-03-30 21:00:00,
2013-03-30 17:04:00,62.5,41.5,30.10,WNW,294,2.0,7.0,46,0.00,,OVC055,0.03,VWS V14.01,2013-03-30 21:04:00,
2013-03-30 17:09:00,62.4,41.4,30.10,NNW,332,4.0,7.0,46,0.00,,OVC055,0.03,VWS V14.01,2013-03-30 21:09:00,
2013-03-30 17:14:00,62.2,41.2,30.10,ENE,73,3.0,7.0,46,0.00,,OVC055,0.03,VWS V14.01,2013-03-30 21:14:00,
2013-03-30 17:19:00,61.9,41.5,30.10,NE,47,3.0,7.0,47,0.00,,OVC055,0.03,VWS V14.01,2013-03-30 21:19:00,
2013-03-30 17:24:00,61.5,41.7,30.10,NNW,329,0.0,7.0,48,0.00,,OVC055,0.03,VWS V14.01,2013-03-30 21:24:00,
2013-03-30 17:29:00,61.4,42.1,30.10,ENE,66,1.0,7.0,49,0.00,,OVC055,0.03,VWS V14.01,2013-03-30 21:29:00,
2013-03-30 17:30:00,61.4,42.1,30.10,ENE,66,1.0,7.0,49,0.00,,OVC055,0.03,VWS V14.01,2013-03-30 21:30:00,
2013-03-30 17:34:00,61.2,41.9,30.10,ESE,107,1.0,5.0,49,0.00,,OVC055,0.03,VWS V14.01,2013-03-30 21:34:00,
2013-03-30 17:39:00,60.8,41.5,30.10,WSW,240,3.0,5.0,49,0.00,,OVC055,0.03,VWS V14.01,2013-03-30 21:39:00,
2013-03-30 17:44:00,60.8,42.6,30.10,WSW,257,1.0,5.0,51,0.00,,OVC055,0.03,VWS V14.01,2013-03-30 21:44:00,
2013-03-30 17:49:00,60.7,42.0,30.10,North,355,2.0,5.0,50,0.00,,OVC055,0.03,VWS V14.01,2013-03-30 21:49:00,
2013-03-30 17:53:00,60.6,42.4,30.10,SSE,157,0.0,5.0,51,0.00,,OVC055,0.03,VWS V14.01,2013-03-30 21:53:00,
2013-03-30 17:58:00,60.5,41.8,30.10,SSE,148,2.0,5.0,50,0.00,,OVC055,0.03,VWS V14.01,2013-03-30 21:58:00,
2013-03-30 18:00:00,60.5,42.3,30.10,SSE,148,1.0,5.0,51,0.00,,OVC055,0.03,VWS V14.01,2013-03-30 22:00:00,
2013-03-30 18:03:00,60.4,42.2,30.09,NE,46,1.0,4.0,51,0.00,,OVC055,0.03,VWS V14.01,2013-03-30 22:03:00,
2013-03-30 18:08:00,60.3,41.6,30.10,SW,215,1.0,4.0,50,0.00,,OVC055,0.03,VWS V14.01,2013-03-30 22:08:00,
2013-03-30 18:13:00,60.1,41.9,30.10,WSW,248,1.0,4.0,51,0.00,,OVC055,0.03,VWS V14.01,2013-03-30 22:13:00,
2013-03-30 18:18:00,59.9,41.8,30.10,WNW,297,0.0,4.0,51,0.00,,OVC055,0.03,VWS V14.01,2013-03-30 22:18:00,
2013-03-30 18:23:00,59.8,42.2,30.09,WNW,298,2.0,4.0,52,0.00,,OVC055,0.03,VWS V14.01,2013-03-30 22:23:00,
2013-03-30 18:28:00,59.6,42.0,30.09,WSW,242,0.0,4.0,52,0.00,,OVC055,0.03,VWS V14.01,2013-03-30 22:28:00,
2013-03-30 18:30:00,59.6,42.0,30.09,WSW,242,0.0,4.0,52,0.00,,OVC055,0.03,VWS V14.01,2013-03-30 22:30:00,
2013-03-30 18:33:00,59.5,42.4,30.09,WSW,252,0.0,4.0,53,0.00,,OVC055,0.03,VWS V14.01,2013-03-30 22:33:00,
2013-03-30 18:38:00,59.4,41.8,30.09,NE,34,1.0,4.0,52,0.00,,OVC055,0.03,VWS V14.01,2013-03-30 22:38:00,
2013-03-30 18:43:00,59.3,41.7,30.09,North,355,0.0,4.0,52,0.00,,OVC055,0.03,VWS V14.01,2013-03-30 22:43:00,
2013-03-30 18:48:00,59.2,42.1,30.10,North,355,0.0,4.0,53,0.00,,OVC055,0.03,VWS V14.01,2013-03-30 22:48:00,
2013-03-30 18:53:00,59.2,41.6,30.10,ENE,65,0.0,4.0,52,0.00,,OVC055,0.03,VWS V14.01,2013-03-30 22:53:00,
2013-03-30 18:58:00,59.0,41.9,30.09,NW,322,0.0,4.0,53,0.00,,OVC055,0.03,VWS V14.01,2013-03-30 22:58:00,
2013-03-30 19:00:00,59.0,41.9,30.09,NW,322,0.0,4.0,53,0.00,,OVC055,0.03,VWS V14.01,2013-03-30 23:00:00,
2013-03-30 19:03:00,58.8,42.2,30.09,NW,322,0.0,1.0,54,0.00,,OVC055,0.03,VWS V14.01,2013-03-30 23:03:00,
2013-03-30 19:08:00,58.6,42.5,30.09,NW,322,0.0,3.0,55,0.00,,OVC055,0.03,VWS V14.01,2013-03-30 23:08:00,
2013-03-30 19:13:00,58.4,42.8,30.09,NW,322,0.0,3.0,56,0.00,,OVC055,0.03,VWS V14.01,2013-03-30 23:13:00,
2013-03-30 19:18:00,58.2,41.7,30.09,NW,322,1.0,3.0,54,0.00,,OVC055,0.03,VWS V14.01,2013-03-30 23:18:00,
2013-03-30 19:23:00,57.9,41.4,30.09,NW,322,0.0,3.0,54,0.00,,OVC055,0.03,VWS V14.01,2013-03-30 23:23:00,
2013-03-30 19:28:00,57.6,41.6,30.09,NW,322,1.0,3.0,55,0.00,,OVC055,0.03,VWS V14.01,2013-03-30 23:28:00,
2013-03-30 19:30:00,57.6,41.6,30.09,NW,322,1.0,3.0,55,0.00,,OVC055,0.03,VWS V14.01,2013-03-30 23:30:00,
2013-03-30 19:33:00,57.3,41.3,30.09,NW,322,0.0,1.0,55,0.00,,OVC055,0.03,VWS V14.01,2013-03-30 23:33:00,
2013-03-30 19:38:00,57.0,41.0,30.09,NW,322,0.0,1.0,55,0.00,,OVC055,0.03,VWS V14.01,2013-03-30 23:38:00,
2013-03-30 19:43:00,56.7,41.2,30.09,NW,322,0.0,1.0,56,0.00,,OVC055,0.03,VWS V14.01,2013-03-30 23:43:00,
2013-03-30 19:48:00,56.4,40.9,30.09,NW,322,0.0,1.0,56,0.00,,OVC055,0.03,VWS V14.01,2013-03-30 23:48:00,
2013-03-30 19:53:00,56.2,41.2,30.09,NW,322,0.0,1.0,57,0.00,,OVC055,0.03,VWS V14.01,2013-03-30 23:53:00,
2013-03-30 19:58:00,55.9,40.9,30.09,NW,322,0.0,1.0,57,0.00,,OVC055,0.03,VWS V14.01,2013-03-30 23:58:00,
2013-03-30 20:00:00,55.9,40.9,30.09,NW,322,0.0,1.0,57,0.00,,OVC055,0.03,VWS V14.01,2013-03-31 00:00:00,
2013-03-30 20:03:00,55.6,41.1,30.09,NW,322,0.0,0.0,58,0.00,,OVC055,0.03,VWS V14.01,2013-03-31 00:03:00,
2013-03-30 20:08:00,55.2,41.1,30.09,NW,322,0.0,0.0,59,0.00,,OVC055,0.03,VWS V14.01,2013-03-31 00:08:00,
2013-03-30 20:13:00,54.8,40.8,30.09,NW,322,0.0,1.0,59,0.00,,OVC055,0.03,VWS V14.01,2013-03-31 00:13:00,
2013-03-30 20:18:00,54.4,41.2,30.09,NW,322,0.0,1.0,61,0.00,,OVC055,0.03,VWS V14.01,2013-03-31 00:18:00,
2013-03-30 20:23:00,54.0,40.9,30.09,NW,322,0.0,1.0,61,0.00,,OVC055,0.03,VWS V14.01,2013-03-31 00:23:00,
2013-03-30 20:28:00,53.7,40.6,30.09,NW,322,0.0,1.0,61,0.00,,OVC055,0.03,VWS V14.01,2013-03-31 00:28:00,
2013-03-30 20:30:00,53.7,41.0,30.09,NW,322,0.0,1.0,62,0.00,,OVC055,0.03,VWS V14.01,2013-03-31 00:30:00,
2013-03-30 20:33:00,53.4,40.7,30.09,NW,322,0.0,1.0,62,0.00,,OVC055,0.03,VWS V14.01,2013-03-31 00:33:00,
2013-03-30 20:38:00,53.1,40.4,30.09,NW,322,0.0,1.0,62,0.00,,OVC055,0.03,VWS V14.01,2013-03-31 00:38:00,
2013-03-30 20:43:00,52.9,41.5,30.09,NW,322,0.0,1.0,65,0.00,,OVC055,0.03,VWS V14.01,2013-03-31 00:43:00,
2013-03-30 20:48:00,52.5,41.9,30.09,NW,322,0.0,1.0,67,0.00,,OVC055,0.03,VWS V14.01,2013-03-31 00:48:00,
2013-03-30 20:53:00,52.0,41.0,30.09,NW,322,0.0,1.0,66,0.00,,OVC055,0.03,VWS V14.01,2013-03-31 00:53:00,
2013-03-30 20:58:00,51.5,41.3,30.09,NW,322,0.0,1.0,68,0.00,,OVC055,0.03,VWS V14.01,2013-03-31 00:58:00,
2013-03-30 21:00:00,51.4,41.2,30.09,NW,322,0.0,1.0,68,0.00,,OVC055,0.03,VWS V14.01,2013-03-31 01:00:00,
2013-03-30 21:03:00,51.1,41.3,30.09,NW,322,0.0,0.0,69,0.00,,OVC055,0.03,VWS V14.01,2013-03-31 01:03:00,
2013-03-30 21:08:00,50.8,41.0,30.09,NW,322,0.0,0.0,69,0.00,,OVC055,0.03,VWS V14.01,2013-03-31 01:08:00,
2013-03-30 21:13:00,50.4,41.4,30.09,NW,322,0.0,0.0,71,0.00,,OVC055,0.03,VWS V14.01,2013-03-31 01:13:00,
2013-03-30 21:18:00,50.0,41.0,30.08,NW,322,0.0,0.0,71,0.00,,OVC055,0.03,VWS V14.01,2013-03-31 01:18:00,
2013-03-30 21:23:00,49.6,40.6,30.09,NW,322,0.0,0.0,71,0.00,,OVC055,0.03,VWS V14.01,2013-03-31 01:23:00,
2013-03-30 21:28:00,49.3,40.7,30.09,NW,322,0.0,0.0,72,0.00,,OVC055,0.03,VWS V14.01,2013-03-31 01:28:00,
2013-03-30 21:30:00,49.3,40.7,30.09,NW,322,0.0,0.0,72,0.00,,OVC055,0.03,VWS V14.01,2013-03-31 01:30:00,
2013-03-30 21:33:00,49.3,40.7,30.08,NW,322,0.0,1.0,72,0.00,,OVC055,0.03,VWS V14.01,2013-03-31 01:33:00,
2013-03-30 21:38:00,49.3,41.0,30.09,NW,322,0.0,1.0,73,0.00,,OVC055,0.03,VWS V14.01,2013-03-31 01:38:00,
2013-03-30 21:43:00,49.3,41.0,30.09,NW,322,0.0,1.0,73,0.00,,OVC055,0.03,VWS V14.01,2013-03-31 01:43:00,
2013-03-30 21:48:00,49.2,41.3,30.09,NW,322,0.0,1.0,74,0.00,,OVC055,0.03,VWS V14.01,2013-03-31 01:48:00,
2013-03-30 21:53:00,49.1,41.9,30.08,NW,322,0.0,1.0,76,0.00,,OVC055,0.03,VWS V14.01,2013-03-31 01:53:00,
2013-03-30 21:58:00,49.0,41.4,30.09,NW,322,0.0,1.0,75,0.00,,OVC055,0.03,VWS V14.01,2013-03-31 01:58:00,
2013-03-30 22:00:00,49.0,41.4,30.09,NW,322,0.0,1.0,75,0.00,,OVC055,0.03,VWS V14.01,2013-03-31 02:00:00,
2013-03-30 22:03:00,48.8,41.9,30.08,NW,322,0.0,0.0,77,0.00,,OVC055,0.03,VWS V14.01,2013-03-31 02:03:00,
2013-03-30 22:08:00,48.6,41.7,30.08,NW,322,0.0,0.0,77,0.00,,OVC055,0.03,VWS V14.01,2013-03-31 02:08:00,
2013-03-30 22:13:00,48.3,41.1,30.09,NW,322,0.0,0.0,76,0.00,,OVC055,0.03,VWS V14.01,2013-03-31 02:13:00,
2013-03-30 22:18:00,48.2,41.0,30.09,NW,322,0.0,0.0,76,0.00,,OVC055,0.03,VWS V14.01,2013-03-31 02:18:00,
2013-03-30 22:23:00,48.1,41.2,30.09,NW,322,0.0,0.0,77,0.00,,OVC055,0.03,VWS V14.01,2013-03-31 02:23:00,
2013-03-30 22:28:00,48.1,41.2,30.09,NW,322,0.0,1.0,77,0.00,,OVC055,0.03,VWS V14.01,2013-03-31 02:28:00,
2013-03-30 22:30:00,48.0,41.2,30.09,NW,322,0.0,1.0,77,0.00,,OVC055,0.03,VWS V14.01,2013-03-31 02:30:00,
2013-03-30 22:33:00,48.1,41.6,30.09,NW,322,0.0,0.0,78,0.00,,OVC055,0.03,VWS V14.01,2013-03-31 02:33:00,
2013-03-30 22:38:00,48.0,42.8,30.09,NW,322,0.0,1.0,82,0.00,,OVC055,0.03,VWS V14.01,2013-03-31 02:38:00,
2013-03-30 22:43:00,47.9,42.0,30.09,NW,322,0.0,1.0,80,0.00,,OVC055,0.03,VWS V14.01,2013-03-31 02:43:00,
2013-03-30 22:48:00,47.8,41.9,30.09,NW,322,0.0,1.0,80,0.00,,OVC055,0.03,VWS V14.01,2013-03-31 02:48:00,
2013-03-30 22:53:00,47.9,43.0,30.09,NW,322,0.0,1.0,83,0.00,,OVC055,0.03,VWS V14.01,2013-03-31 02:53:00,
2013-03-30 22:58:00,47.9,43.3,30.09,NW,322,0.0,1.0,84,0.00,,OVC055,0.03,VWS V14.01,2013-03-31 02:58:00,
2013-03-30 23:00:00,47.9,42.7,30.09,NW,322,0.0,1.0,82,0.00,,OVC055,0.03,VWS V14.01,2013-03-31 03:00:00,
2013-03-30 23:03:00,47.9,43.0,30.09,NW,322,0.0,0.0,83,0.00,,OVC055,0.03,VWS V14.01,2013-03-31 03:03:00,
2013-03-30 23:08:00,47.9,43.0,30.09,NW,322,0.0,0.0,83,0.00,,OVC055,0.03,VWS V14.01,2013-03-31 03:08:00,
2013-03-30 23:13:00,47.9,42.7,30.09,NW,322,0.0,0.0,82,0.00,,OVC055,0.03,VWS V14.01,2013-03-31 03:13:00,
2013-03-30 23:18:00,48.0,42.8,30.09,NW,322,0.0,0.0,82,0.00,,OVC055,0.03,VWS V14.01,2013-03-31 03:18:00,
2013-03-30 23:23:00,48.0,42.5,30.09,NW,322,0.0,0.0,81,0.00,,OVC055,0.03,VWS V14.01,2013-03-31 03:23:00,
2013-03-30 23:28:00,48.0,43.1,30.09,NW,322,0.0,0.0,83,0.00,,OVC055,0.03,VWS V14.01,2013-03-31 03:28:00,
2013-03-30 23:30:00,48.0,43.4,30.09,NW,322,0.0,0.0,84,0.00,,OVC055,0.03,VWS V14.01,2013-03-31 03:30:00,
2013-03-30 23:33:00,48.0,43.7,30.09,NW,322,0.0,0.0,85,0.00,,OVC055,0.03,VWS V14.01,2013-03-31 03:33:00,
2013-03-30 23:38:00,47.9,43.6,30.09,NW,322,0.0,0.0,85,0.00,,OVC055,0.03,VWS V14.01,2013-03-31 03:38:00,
2013-03-30 23:43:00,47.8,43.5,30.09,NW,322,0.0,0.0,85,0.00,,OVC055,0.03,VWS V14.01,2013-03-31 03:43:00,
2013-03-30 23:48:00,47.8,43.5,30.09,NW,322,0.0,0.0,85,0.00,,OVC055,0.03,VWS V14.01,2013-03-31 03:48:00,
2013-03-30 23:53:00,47.7,43.4,30.09,NW,322,0.0,1.0,85,0.00,,OVC055,0.03,VWS V14.01,2013-03-31 03:53:00,
2013-03-30 23:58:00,47.6,43.9,30.09,NW,322,0.0,1.0,87,0.00,,OVC055,0.03,VWS V14.01,2013-03-31 03:58:00,